Weather History for St. George, UT

Change the Weather History Date:

Thursday, September 27, 2012

  Actual Average Record
Temperature  
Mean Temperature 74 °F -  
Max Temperature 89 °F 89 °F 102 °F (1942)
Min Temperature 60 °F 54 °F 35 °F (1934)
Cooling Degree Days 10    
Growing Degree Days 24 (Base 50)    
Moisture  
Dew Point 38 °F    
Average Humidity 30    
Maximum Humidity 45    
Minimum Humidity 15    
Precipitation  
Precipitation 0.00 in - - ()
Sea Level Pressure  
Sea Level Pressure 30.07 in    
Wind  
Wind Speed 3 mph (SSE)    
Max Wind Speed 9 mph    
Max Gust Speed -    
Visibility 10 miles    
Events      
Averages and records for this station are not official NWS values.
T = Trace of Precipitation, MM = Missing Value Source: NWS Daily Summary

Daily Weather History Graph

Daily Weather History Graph

Search for Another Location

Airport:

Trip Planner

Search our weather history database for the weather conditions in past years. The results will help you decide how hot, cold, wet, or windy it might be!

Date:

Astronomy

Sep. 27, 2012 Rise Set
Actual Time 7:26 AM MDT 7:22 PM MDT
Civil Twilight 7:00 AM MDT 7:48 PM MDT
Nautical Twilight 6:30 AM MDT 8:18 PM MDT
Astronomical Twilight 6:00 AM MDT 8:49 PM MDT
Moon 5:54 PM MDT (9/27) 5:02 AM MDT (9/27)
Length of Visible Light 12h 47m
Length of Day
11h 55m
Waxing Gibbous, 94% of the Moon is Illuminated
Sep 27
Waxing Gibbous
Sep 29
Full
Oct 8
Last Quarter
Oct 15
New
Oct 21
First Quarter

Hourly Weather History & Observations

Time (MDT) Temp. Dew Point Humidity Pressure Visibility Wind Dir Wind Speed Gust Speed Precip Events Conditions
12:15 AM 69.8 °F 39.2 °F 33% 30.05 in 10.0 mi Calm Calm - N/A   Clear
12:35 AM 69.8 °F 39.2 °F 33% 30.05 in 10.0 mi SSE 4.6 mph - N/A   Clear
1:15 AM 66.2 °F 39.2 °F 37% 30.06 in 10.0 mi East 8.1 mph - N/A   Clear
1:35 AM 66.2 °F 37.4 °F 35% 30.06 in 10.0 mi ESE 9.2 mph - N/A   Clear
1:55 AM 66.2 °F 37.4 °F 35% 30.06 in 10.0 mi Calm Calm - N/A   Clear
2:15 AM 66.2 °F 37.4 °F 35% 30.07 in 10.0 mi ESE 3.5 mph - N/A   Clear
2:35 AM 66.2 °F 37.4 °F 35% 30.07 in 10.0 mi SE 4.6 mph - N/A   Clear
2:55 AM 66.2 °F 37.4 °F 35% 30.07 in 10.0 mi ESE 3.5 mph - N/A   Clear
3:15 AM 66.2 °F 37.4 °F 35% 30.07 in 10.0 mi Calm Calm - N/A   Clear
3:35 AM 64.4 °F 37.4 °F 37% 30.07 in 10.0 mi East 4.6 mph - N/A   Clear
3:55 AM 64.4 °F 37.4 °F 37% 30.07 in 10.0 mi ESE 5.8 mph - N/A   Clear
4:15 AM 64.4 °F 37.4 °F 37% 30.08 in 10.0 mi Calm Calm - N/A   Clear
4:35 AM 64.4 °F 37.4 °F 37% 30.08 in 10.0 mi NNW 3.5 mph - N/A   Clear
4:55 AM 64.4 °F 39.2 °F 40% 30.08 in 10.0 mi Calm Calm - N/A   Clear
5:15 AM 62.6 °F 37.4 °F 39% 30.08 in 10.0 mi SE 4.6 mph - N/A   Clear
5:35 AM 62.6 °F 37.4 °F 39% 30.09 in 10.0 mi SSE 5.8 mph - N/A   Clear
5:55 AM 60.8 °F 37.4 °F 42% 30.09 in 10.0 mi SSE 6.9 mph - N/A   Clear
6:15 AM 60.8 °F 37.4 °F 42% 30.10 in 10.0 mi SE 6.9 mph - N/A   Clear
6:55 AM 60.8 °F 37.4 °F 42% 30.11 in 10.0 mi SE 5.8 mph - N/A   Clear
7:15 AM 60.8 °F 37.4 °F 42% 30.12 in 10.0 mi Calm Calm - N/A   Clear
7:35 AM 60.8 °F 37.4 °F 42% 30.12 in 10.0 mi Calm Calm - N/A   Clear
7:55 AM 60.8 °F 37.4 °F 42% 30.13 in 10.0 mi Calm Calm - N/A   Clear
8:15 AM 60.8 °F 39.2 °F 45% 30.13 in 10.0 mi South 3.5 mph - N/A   Clear
8:35 AM 60.8 °F 39.2 °F 45% 30.13 in 10.0 mi South 4.6 mph - N/A   Clear
8:55 AM 62.6 °F 39.2 °F 42% 30.14 in 10.0 mi SSW 3.5 mph - N/A   Clear
9:15 AM 66.2 °F 39.2 °F 37% 30.14 in 10.0 mi ESE 6.9 mph - N/A   Clear
9:55 AM 66.2 °F 42.8 °F 43% 30.15 in 10.0 mi NNW 3.5 mph - N/A   Clear
10:15 AM 69.8 °F 42.8 °F 38% 30.15 in 10.0 mi Calm Calm - N/A   Clear
10:35 AM 69.8 °F 42.8 °F 38% 30.15 in 10.0 mi Calm Calm - N/A   Clear
10:55 AM 69.8 °F 42.8 °F 38% 30.15 in 10.0 mi Calm Calm - N/A   Clear
11:35 AM 75.2 °F 42.8 °F 31% 30.14 in 10.0 mi Calm Calm - N/A   Clear
12:35 PM 77.0 °F 42.8 °F 29% 30.11 in 10.0 mi Calm Calm - N/A   Clear
12:55 PM 78.8 °F 42.8 °F 28% 30.11 in 10.0 mi Calm Calm - N/A   Clear
1:15 PM 80.6 °F 42.8 °F 26% 30.10 in 10.0 mi WNW 5.8 mph - N/A   Clear
1:55 PM 82.4 °F 42.8 °F 25% 30.08 in 10.0 mi WSW 4.6 mph - N/A   Clear
2:35 PM 84.2 °F 42.8 °F 23% 30.06 in 10.0 mi Calm Calm - N/A   Clear
2:55 PM 84.2 °F 41.0 °F 22% 30.05 in 10.0 mi NNW 4.6 mph - N/A   Clear
3:15 PM 84.2 °F 39.2 °F 20% 30.04 in 10.0 mi WNW 3.5 mph - N/A   Clear
3:35 PM 84.2 °F 37.4 °F 19% 30.04 in 10.0 mi Calm Calm - N/A   Clear
3:55 PM 86.0 °F 37.4 °F 18% 30.03 in 10.0 mi West 4.6 mph - N/A   Clear
4:35 PM 86.0 °F 35.6 °F 17% 30.02 in 10.0 mi Calm Calm - N/A   Clear
4:55 PM 86.0 °F 35.6 °F 17% 30.01 in 10.0 mi WNW 4.6 mph - N/A   Clear
5:15 PM 87.8 °F 35.6 °F 16% 30.01 in 10.0 mi NNW 4.6 mph - N/A   Clear
5:35 PM 87.8 °F 35.6 °F 16% 30.01 in 10.0 mi NNW 3.5 mph - N/A   Clear
5:55 PM 89.6 °F 35.6 °F 15% 30.00 in 10.0 mi North 3.5 mph - N/A   Clear
6:15 PM 86.0 °F 35.6 °F 17% 30.00 in 10.0 mi Calm Calm - N/A   Clear
6:35 PM 86.0 °F 35.6 °F 17% 30.00 in 10.0 mi Calm Calm - N/A   Clear
6:55 PM 87.8 °F 35.6 °F 16% 30.00 in 10.0 mi Calm Calm - N/A   Clear
7:15 PM 86.0 °F 35.6 °F 17% 30.00 in 10.0 mi Calm Calm - N/A   Clear
7:55 PM 82.4 °F 35.6 °F 19% 30.00 in 10.0 mi Calm Calm - N/A   Clear
8:15 PM 78.8 °F 35.6 °F 21% 30.01 in 10.0 mi Calm Calm - N/A   Clear
8:35 PM 80.6 °F 35.6 °F 20% 30.01 in 10.0 mi Calm Calm - N/A   Clear
8:55 PM 77.0 °F 35.6 °F 22% 30.02 in 10.0 mi SSW 6.9 mph - N/A   Clear
9:15 PM 75.2 °F 35.6 °F 24% 30.03 in 10.0 mi SSW 3.5 mph - N/A   Clear
9:35 PM 73.4 °F 35.6 °F 25% 30.03 in 10.0 mi SSE 3.5 mph - N/A   Clear
9:55 PM 73.4 °F 35.6 °F 25% 30.03 in 10.0 mi Calm Calm - N/A   Clear
10:15 PM 75.2 °F 35.6 °F 24% 30.04 in 10.0 mi SSE 4.6 mph - N/A   Clear
10:35 PM 71.6 °F 35.6 °F 27% 30.04 in 10.0 mi Calm Calm - N/A   Clear
10:55 PM 73.4 °F 35.6 °F 25% 30.04 in 10.0 mi South 4.6 mph - N/A   Clear
11:15 PM 71.6 °F 35.6 °F 27% 30.05 in 10.0 mi SE 4.6 mph - N/A   Clear
11:35 PM 71.6 °F 35.6 °F 27% 30.06 in 10.0 mi SW 3.5 mph - N/A   Clear
11:55 PM 71.6 °F 35.6 °F 27% 30.06 in 10.0 mi Calm Calm - N/A   Clear